Date String (YYYY-MM-DD hh:mm:ss) UTC,Instrument flags,Ambient pressure (hPa),Sample flow (lpm),Bypass flow (lpm),Sample temperature (°C),Ambient temperature (°C),ASC tube jacket temperature (°C),LED temperature (°C),Box temperature (°C),Sample RH (%),Span deviation,Mass concentration (μg/m³),Mass concentration (μg/m³),Mass concentration (μg/m³)
DateTimeUTC,F1_M11,P_M11,Q1_M11,Q2_M11,T1_M11,T2_M11,T3_M11,T4_M11,T5_M11,U1_M11,ZSPAN_M11,X0_M11,X2_M11,X1_M11
2021-12-14 15:00:00,,0821.8,5.00,0.00,23.7,23.0,00.0,32.7,25.5,07.9,0003.0,0021.90,0006.41,0004.52
2021-12-14 15:01:00,,0821.9,5.01,0.00,23.8,23.0,00.0,32.7,25.5,07.9,0005.5,0023.42,0006.42,0004.54
2021-12-14 15:02:00,,0822.0,4.99,0.00,23.8,23.0,00.0,32.7,25.5,07.9,0001.5,0024.05,0006.42,0004.55
2021-12-14 15:03:00,,0821.9,5.00,0.00,23.8,23.0,00.0,32.7,25.5,07.8,0004.9,0023.98,0006.45,0004.56
2021-12-14 15:04:00,,0822.1,5.00,0.00,23.8,23.0,00.0,32.7,25.5,07.8,0006.0,0023.00,0006.37,0004.53
2021-12-14 15:05:00,,0821.8,5.01,0.00,23.8,23.0,00.0,32.7,25.5,07.8,0003.3,0022.49,0006.32,0004.52
2021-12-14 15:06:00,,0821.9,4.99,0.00,23.8,23.0,00.0,32.7,25.5,07.8,0003.7,0021.75,0006.27,0004.51
2021-12-14 15:07:00,,0822.1,5.00,0.00,23.8,23.0,00.0,32.7,25.6,07.8,0000.8,0021.04,0006.23,0004.49
2021-12-14 15:08:00,,0822.0,5.00,0.00,23.8,23.0,00.0,32.8,25.6,07.7,0000.5,0021.29,0006.21,0004.45
2021-12-14 15:09:00,,0822.0,4.99,0.00,23.8,23.0,00.0,32.8,25.6,07.7,0000.6,0021.32,0006.12,0004.42
2021-12-14 15:10:00,,0821.8,5.01,0.00,23.8,23.1,00.0,32.8,25.6,07.7,0000.0,0021.22,0006.08,0004.40
2021-12-14 15:11:00,,0821.8,5.00,0.00,23.8,23.1,00.0,32.8,25.6,07.7,0000.0,0019.29,0006.08,0004.38
2021-12-14 15:12:00,,0821.8,5.00,0.00,23.8,23.1,00.0,32.8,25.6,07.7,0000.0,0017.59,0006.09,0004.37
2021-12-14 15:13:00,,0821.8,5.00,0.00,23.9,23.1,00.0,32.8,25.6,07.7,0000.0,0017.53,0006.07,0004.36
2021-12-14 15:14:00,,0821.8,5.01,0.00,23.9,23.1,00.0,32.8,25.6,07.7,0000.0,0018.53,0006.00,0004.34
2021-12-14 15:15:00,,0821.8,4.99,0.00,23.9,23.1,00.0,32.8,25.6,07.7,0000.0,0019.01,0005.97,0004.35
2021-12-14 15:16:00,,0821.9,5.00,0.00,23.9,23.1,00.0,32.8,25.6,07.7,0000.0,0018.96,0005.94,0004.35
2021-12-14 15:17:00,,0822.0,5.00,0.00,23.9,23.1,00.0,32.8,25.6,07.8,0000.0,0019.28,0005.98,0004.37
2021-12-14 15:18:00,,0822.2,5.01,0.00,23.9,23.1,00.0,32.8,25.6,07.8,0000.0,0019.38,0006.01,0004.40
2021-12-14 15:19:00,,0822.0,5.00,0.00,23.9,23.1,00.0,32.8,25.6,07.9,0000.0,0018.48,0006.03,0004.44
2021-12-14 15:20:00,,0821.8,4.99,0.00,23.9,23.1,00.0,32.8,25.7,08.0,0000.0,0018.63,0006.09,0004.48
2021-12-14 15:21:00,,0821.8,5.01,0.00,23.9,23.1,00.0,32.8,25.7,08.0,0000.0,0019.49,0006.14,0004.50
2021-12-14 15:22:00,,0821.8,4.99,0.00,23.9,23.1,00.0,32.8,25.7,08.1,0000.0,0019.82,0006.17,0004.53
2021-12-14 15:23:00,,0821.9,5.00,0.00,23.9,23.1,00.0,32.9,25.7,08.3,0000.0,0020.97,0006.24,0004.53
2021-12-14 15:24:00,,0821.8,5.03,0.00,23.9,23.1,00.0,32.9,25.7,08.3,0000.0,0021.17,0006.25,0004.52
2021-12-14 15:25:00,,0822.1,4.99,0.00,23.9,23.1,00.0,32.9,25.7,08.2,0000.0,0019.97,0006.27,0004.54
2021-12-14 15:26:00,,0821.9,5.00,0.00,23.9,23.2,00.0,32.9,25.6,08.1,0000.0,0020.39,0006.33,0004.55
2021-12-14 15:27:00,,0822.0,5.01,0.00,23.9,23.2,00.0,32.9,25.7,08.2,0000.0,0020.69,0006.36,0004.58
2021-12-14 15:28:00,,0822.2,5.00,0.00,24.0,23.2,00.0,32.9,25.6,08.2,0000.0,0021.27,0006.33,0004.58
2021-12-14 15:29:00,,0822.1,5.00,0.00,24.0,23.2,00.0,32.9,25.7,08.3,0000.0,0021.73,0006.33,0004.55
2021-12-14 15:30:00,,0821.8,5.00,0.00,24.0,23.2,00.0,32.9,25.7,08.5,0000.0,0022.00,0006.27,0004.52
2021-12-14 15:31:00,,0821.8,5.00,0.00,24.0,23.2,00.0,32.9,25.7,08.4,0000.0,0022.08,0006.23,0004.49
2021-12-14 15:32:00,,0821.9,5.01,0.00,24.0,23.2,00.0,32.9,25.7,08.4,0000.0,0021.12,0006.20,0004.44
2021-12-14 15:33:00,,0821.8,5.01,0.00,24.0,23.2,00.0,32.9,25.7,08.5,0000.0,0021.37,0006.13,0004.39
2021-12-14 15:34:00,,0821.8,4.99,0.00,24.0,23.2,00.0,32.9,25.7,08.5,0000.0,0020.91,0006.00,0004.34
2021-12-14 15:35:00,,0821.8,4.99,0.00,24.0,23.2,00.0,32.9,25.7,08.4,0000.7,0019.93,0005.94,0004.31
2021-12-14 15:36:00,,0821.8,5.01,0.00,24.0,23.2,00.0,32.9,25.8,08.2,0000.7,0019.66,0005.94,0004.28
2021-12-14 15:37:00,,0821.8,5.00,0.00,24.0,23.2,00.0,32.9,25.8,08.1,0000.0,0019.44,0005.87,0004.25
2021-12-14 15:38:00,,0821.8,4.98,0.00,24.0,23.2,00.0,33.0,25.8,08.1,0000.0,0019.65,0005.80,0004.21
2021-12-14 15:39:00,,0821.8,5.00,0.00,24.0,23.2,00.0,33.0,25.8,08.0,0000.0,0018.48,0005.78,0004.19
2021-12-14 15:40:00,,0821.7,5.00,0.00,24.1,23.2,00.0,33.0,25.8,07.9,0000.0,0018.07,0005.79,0004.20
2021-12-14 15:41:00,,0821.7,5.00,0.00,24.1,23.2,00.0,33.0,25.8,08.0,0000.0,0019.20,0005.90,0004.20
2021-12-14 15:42:00,,0821.7,4.99,0.00,24.1,23.2,00.0,33.0,25.9,08.1,0000.0,0019.72,0005.95,0004.20
2021-12-14 15:43:00,,0821.7,5.01,0.00,24.1,23.2,00.0,33.0,25.9,08.0,0000.0,0020.04,0005.95,0004.21
2021-12-14 15:44:00,,0821.8,5.00,0.00,24.1,23.2,00.0,33.0,25.9,08.1,0000.0,0020.33,0005.95,0004.23
2021-12-14 15:45:00,,0821.8,4.99,0.00,24.1,23.3,00.0,33.0,25.9,08.2,0000.0,0020.34,0005.96,0004.23
2021-12-14 15:46:00,,0821.8,5.00,0.00,24.1,23.3,00.0,33.0,25.9,08.2,0000.0,0020.56,0005.99,0004.24
2021-12-14 15:47:00,,0821.7,5.00,0.00,24.1,23.3,00.0,33.0,25.9,08.2,0000.0,0020.81,0005.97,0004.23
2021-12-14 15:48:00,,0821.7,5.02,0.00,24.1,23.3,00.0,33.0,25.9,08.1,0000.0,0020.26,0005.97,0004.22
2021-12-14 15:49:00,,0821.7,5.00,0.00,24.1,23.3,00.0,33.0,25.9,08.0,0000.0,0019.15,0005.99,0004.21
2021-12-14 15:50:00,,0821.7,5.00,0.00,24.1,23.3,00.0,33.1,25.9,08.1,0000.0,0018.78,0005.99,0004.19
2021-12-14 15:51:00,,0821.7,5.02,0.00,24.2,23.3,00.0,33.1,25.9,08.0,0000.0,0018.65,0005.94,0004.16
2021-12-14 15:52:00,,0821.7,4.99,0.00,24.2,23.3,00.0,33.1,25.9,08.0,0000.0,0018.15,0005.88,0004.13
2021-12-14 15:53:00,,0821.7,4.99,0.00,24.2,23.3,00.0,33.1,25.9,08.0,0000.0,0017.99,0005.86,0004.14
2021-12-14 15:54:00,,0821.7,5.00,0.00,24.2,23.3,00.0,33.1,25.9,08.0,0000.0,0017.75,0005.87,0004.13
2021-12-14 15:55:00,,0821.7,4.99,0.00,24.2,23.3,00.0,33.1,26.0,07.8,0000.2,0016.99,0005.90,0004.15
2021-12-14 15:56:00,,0821.6,5.01,0.00,24.2,23.3,00.0,33.1,26.0,07.8,0000.4,0017.32,0005.97,0004.23
2021-12-14 15:57:00,,0821.6,4.99,0.00,24.2,23.3,00.0,33.1,26.0,07.8,0000.0,0017.51,0006.00,0004.28
2021-12-14 15:58:00,,0821.5,4.99,0.00,24.2,23.3,00.0,33.1,26.0,07.7,0000.2,0017.41,0006.01,0004.34
2021-12-14 15:59:00,,0821.4,5.01,0.00,24.2,23.3,00.0,33.1,26.0,07.7,0000.8,0018.60,0006.03,0004.39
